Location: Sigmaringen
(48.0900°N, 9.2120°E)
Time: 05:35:03

N. Korean satellite - Visible Passes

Search period start: 25 March 2018 00:00
Search period end: 04 April 2018 01:00
Orbit: 460 x 512 km, 97.2° (Epoch: 24 March)

Date Brightness Start Highest point End Pass type
(mag) Time Alt. Az. Time Alt. Az. Time Alt. Az.
26 Mar 10.4 20:31:06 10° WSW 20:32:15 11° W 20:33:24 10° WNW visible
30 Mar 10.3 20:28:58 10° WSW 20:30:21 12° W 20:31:43 10° WNW visible
03 Apr 10.2 20:26:49 10° WSW 20:28:22 12° W 20:29:57 10° WNW visible
